Location: Mactaquac Provincial Park
(45.9573°N, 66.8897°W)
Time: 16:24:47
(UTC-04:00)

CENTAUR R/B - Visible Passes

Search period start: 22 January 2017 00:00
Search period end: 01 February 2017 00:00
Orbit: 841 x 1348 km, 63.5° (Epoch: 21 January)

Date Brightness Start Highest point End Pass type
(mag) Time Alt. Az. Time Alt. Az. Time Alt. Az.
22 Jan 3.6 18:26:18 10° WSW 18:32:17 43° NW 18:39:03 10° NNE visible
22 Jan 4.5 20:20:01 10° WNW 20:25:02 21° N 20:26:54 19° N visible
22 Jan 5.2 22:12:53 10° NW 22:14:05 14° NNW 22:14:05 14° NNW visible
23 Jan 4.3 19:30:42 10° WNW 19:36:00 24° NNW 19:40:21 15° NNE visible
23 Jan 4.8 21:24:15 10° NW 21:27:32 19° N 21:27:32 19° N visible
24 Jan 4.1 18:41:28 10° W 18:47:05 30° NNW 18:53:22 10° NNE visible
24 Jan 4.5 20:35:22 10° NW 20:40:19 20° N 20:40:58 19° N visible
24 Jan 5.2 22:27:17 10° NNW 22:28:09 13° NNW 22:28:09 13° NNW visible
25 Jan 3.7 17:52:25 10° WSW 17:58:21 39° NW 18:05:02 10° NNE visible
25 Jan 4.5 19:46:13 10° NW 19:51:12 20° N 19:54:23 16° NNE visible
25 Jan 4.8 21:38:54 10° NNW 21:41:35 19° NNW 21:41:35 19° NNW visible
26 Jan 4.4 18:56:55 10° WNW 19:02:09 23° NNW 19:07:48 10° NNE visible
26 Jan 4.5 20:50:21 10° NW 20:54:59 21° N 20:54:59 21° N visible
26 Jan 5.3 22:41:29 10° NNW 22:42:10 13° NNW 22:42:10 13° NNW visible
27 Jan 4.1 18:07:40 10° W 18:13:13 28° NNW 18:19:22 10° NNE visible
27 Jan 4.5 20:01:32 10° NW 20:06:31 20° N 20:08:23 18° NNE visible
27 Jan 4.9 21:53:15 10° NNW 21:55:35 19° NNW 21:55:35 19° NNW visible
28 Jan 4.5 19:12:26 10° NW 19:17:23 20° N 19:21:48 13° NNE visible
28 Jan 4.5 21:04:55 10° NNW 21:08:58 23° N 21:08:58 23° N visible
28 Jan 5.4 22:55:38 10° NW 22:56:10 12° NNW 22:56:10 12° NNW visible
29 Jan 4.4 18:23:09 10° WNW 18:28:18 22° NNW 18:33:56 10° NE visible
29 Jan 4.4 20:16:25 10° NW 20:21:49 22° NNE 20:22:24 21° NNE visible
29 Jan 4.9 22:07:27 10° NNW 22:09:35 20° NNW 22:09:35 20° NNW visible
30 Jan 4.5 19:27:39 10° NW 19:32:42 20° N 19:35:49 16° NNE visible
30 Jan 4.4 21:19:14 10° NNW 21:23:00 26° N 21:23:00 26° N visible
30 Jan 5.4 23:09:48 10° NW 23:10:11 12° NW 23:10:11 12° NW visible
31 Jan 4.5 18:38:37 10° NW 18:43:34 20° N 18:48:54 10° NE visible
31 Jan 4.2 20:30:56 10° NNW 20:36:26 26° NNE 20:36:26 26° NNE visible
31 Jan 4.9 22:21:35 10° NW 22:23:37 20° NNW 22:23:37 20° NNW visible
